Other Public Products
Issued by NWS Charleston, SC

Current Version | Previous Version | Graphics & Text | Print | Product List | Glossary On
Versions: 1 2 3 4 5 6 7 8 9 10 11 12 13 14 15 16 17 18 19 20 21 22 23 24 25 26 27 28 29 30 31 32 33 34 35 36 37 38 39 40 41 42 43 44 45 46 47 48 49 50
068
FPUS82 KCHS 261312
OPUCHS

TEST...KCHS/KSAV Gateway Observations...TEST
National Weather Service Charleston SC
900 AM EDT SUN MAR 26 2017

NOTE: "fair" indicates few or no clouds below 12,000 feet with no
significant weather and/or obstructions to visibility.

SCZ050-WAZ558-NCZ071-TXZ119-213-PAZ071-DCZ001-FLZ074-172-MI076-
NYZ176-178-MAZ016-IL014-TNZ027-NJZ106-GAZ044-MD014-261400-

...Gateway Observations for Charleston International...

CITY           SKY/WX    TMP DP  RH WIND       PRES   REMARKS
Chas Airport   MOSUNNY   66  58  75 SE5       30.20R
Seattle        CLOUDY    44  38  79 SE6       29.87F
Charlotte      CLOUDY    59  54  83 SE8       30.21R
Dallas DFW     PTCLDY    54  50  86 SE8       29.86S
Dallas Love    PTCLDY    57  50  77 SE10      29.88S
Philladelphia  CLOUDY    43  36  76 E17       30.40R
Wash National  CLOUDY    48  44  86 E13       30.33R
Baltimore      CLOUDY    46  41  82 E13       30.34R
Miami          MOSUNNY   76  64  66 E14       30.09S
Detroit        CLOUDY    41  37  86 NE8       30.04S
Newark         CLOUDY    40  33  76 E12       30.45R WCI  33
Laguardia      CLOUDY    40  33  76 E15       30.45R WCI  32
J F K          CLOUDY    40  36  86 NE12      30.46R WCI  33
Boston Logan   PTSUNNY   38  27  64 NE16      30.53F WCI  29
Ft. Lauderdale PTSUNNY   73  64  73 E12       30.09R
Chicago O`Hare HVY RAIN  50  47  89 E3        29.85S VSB 1
Chicago Midway LGT RAIN  52  52 100 SE9       29.86S FOG
Houston Bush   PTCLDY    64  63  96 S5        29.92R
Houston Hobby  MOCLDY    67  67 100 S3        29.92R FOG
Nashville      CLOUDY    59  57  93 S8        30.00R
Atlanta        MOSUNNY   60  59  96 SE8       30.11R

$$

GAZ044-118-TXZ119-213-NCZ071-DCZ001-MDZ014-506-PAZ021-071-NJZ106-
NYZ176-178-MAZ106-OHZ011-021-055-MIZ076-KYZ091-ILZ014-INZ047-
MNZ060-ONZ431-261400-

...Gateway Observations for Savannah International...

CITY           SKY/WX    TMP DP  RH WIND       PRES   REMARKS
Savannah Arpt  PTSUNNY   64  58  80 SE6       30.18R
Atlanta        MOSUNNY   60  59  96 SE8       30.11R
Charlotte      CLOUDY    59  54  83 SE8       30.21R
Dallas DFW     PTCLDY    54  50  86 SE8       29.86S
Houston Bush   PTCLDY    64  63  96 S5        29.92R
Wash National  CLOUDY    48  44  86 E13       30.33R
Wash Dulles    CLOUDY    47  42  83 E8        30.32R
Baltimore      CLOUDY    46  41  82 E13       30.34R
Philadelphia   CLOUDY    43  36  76 E17       30.40R
Newark         CLOUDY    40  33  76 E12       30.45R WCI  33
Laguardia      CLOUDY    40  33  76 E15       30.45R WCI  32
J F K          CLOUDY    40  36  86 NE12      30.46R WCI  33
Boston         PTSUNNY   38  27  64 NE16      30.53F WCI  29
Pittsburg      CLOUDY    58  49  72 SE14      30.09R
Akron          CLOUDY    60  50  69 SE12      30.04R
Cleveland      CLOUDY    62  49  62 S13       30.02S
Cincinnati     CLOUDY    56  55  97 S8        29.99R
Columbus       LGT RAIN  57  50  76 SW8       30.01R
Detroit        CLOUDY    41  37  86 NE8       30.04S
Chicago O`Hare HVY RAIN  50  47  89 E3        29.85S VSB 1
Minneapolis    CLOUDY    37  33  85 VRB6      29.95S WCI  32
Indianapolis   RAIN      56  55  97 SW7       29.92R FOG
Toronto Canada CLOUDY    36  34  93 E15G25    30.20S WCI  26

$$




USA.gov is the U.S. government's official web portal to all federal, state and local government web resources and services.